Starlink 35403

operational
NORAD ID: 66081 Int'l Des: 2025-235 Owner: SPXS Country: US Constellation: starlink
NOTLE

About Starlink 35403

Description loading...

Live Position

Loading 3D Globe...

Upcoming Passes

Altitude History

Altitude vs Time

uPlot chart will show altitude changes over time

Two-Line Element Set

1 66081U 25235Z 25318.71210773 .00118468 00000-0 21026-2 0 9996
2 66081 53.1596 61.0399 0000449 103.2495 256.8565 15.49353880 5290
Epoch: Nov 14, 2025 • Age: 10 hours

Current Status

Altitude 432.0 km
Velocity 7.65 km/s
Sub-Earth Point -40.81°S, 173.75°E
Launch Date Oct 19, 2025
Age 26 days
Type internet

Technical Details

Classification Payload
Mass 575.00 kg
Dry Mass 530.00 kg
Total Mass 575.00 kg
Length 0.30 m
Diameter 4.10 m
Span 29.00 m
Shape Box + pan
Manufacturer SPXS
Bus Type Starlink V2MO
Phase Status In Orbit
Owner/State SPXS/US

Large Constellations

Loading constellations...